CFE7JL EIDW-EGLC

Flight info

Callsign CFE7JL
Flight time N/A
Altitude 33000
Route ENDEQ Q36 NOSLO Z197 LISTO
Aircraft E190/M-SDE3GILORVW/S

Departure

Time N/A
Airport Dublin Airport (EIDW)

Arrival

Time 2026-05-03 21:50
Airport London City Airport (EGLC)
Time Latitude Longitude Altitude Speed Heading
2026-05-03 21:47 51.49891 0.24859 2990 ft 183 kts 273°
2026-05-03 21:47 51.49960 0.22826 2990 ft 180 kts 273°
2026-05-03 21:47 51.50024 0.20894 2983 ft 167 kts 273°
2026-05-03 21:48 51.50084 0.19076 2947 ft 165 kts 273°
2026-05-03 21:48 51.50149 0.17121 2400 ft 178 kts 273°
2026-05-03 21:48 51.50215 0.15166 1981 ft 175 kts 273°
2026-05-03 21:48 51.50276 0.13309 1584 ft 160 kts 273°
2026-05-03 21:49 51.50331 0.11594 1163 ft 145 kts 272°
2026-05-03 21:49 51.50382 0.10041 820 ft 138 kts 273°
2026-05-03 21:49 51.50422 0.08485 470 ft 140 kts 274°
2026-05-03 21:49 51.50476 0.06930 146 ft 135 kts 274°
2026-05-03 21:50 51.50526 0.05562 24 ft 103 kts 273°
2026-05-03 21:50 51.50550 0.04814 24 ft 45 kts 272°
2026-05-03 21:50 51.50537 0.04545 25 ft 17 kts 221°
2026-05-03 21:50 51.50469 0.04622 24 ft 15 kts 102°
2026-05-03 21:51 51.50465 0.04787 24 ft 16 kts 88°
2026-05-03 21:51 51.50463 0.04968 24 ft 17 kts 92°
2026-05-03 21:51 51.50452 0.05115 24 ft 6 kts 97°
2026-05-03 21:51 51.50422 0.05151 24 ft 6 kts 174°
2026-05-03 21:52 51.50410 0.05151 24 ft 0 kts 181°